Location: São Paulo
(23.5507°S, 46.6334°W)
Time: 00:25:52
(UTC-03:00)

Hubble Space Telescope - Pass Details

Date: 29 July 2021
Orbit: 535 x 539 km, 28.5° (Epoch: 23 September)

Event Time Altitude Azimuth Distance (km) Brightness Sun altitude
Exits shadow 04:45:29 46° 93° (E) 727 1.7 -26.9°
Drops below altitude 10° 04:48:30 10° 105° (ESE) 1,794 4.3 -26.2°
Sets 04:50:47 0° 106° (ESE) 2,688 5.3 -25.7°
